Location: Arclight Observatory
(36.5667°N, 87.3333°W)
Time: 18:39:11
(UTC-05:00)

HST - Visible Passes

Search period start: 30 October 2014 00:00
Search period end: 08 November 2014 23:00
Orbit: 546 x 550 km, 28.5° (Epoch: 30 October)

Date Brightness Start Highest point End Pass type
(mag) Time Alt. Az. Time Alt. Az. Time Alt. Az.
30 Oct 2.3 19:10:50 10° WSW 19:14:23 27° S 19:16:22 19° SE visible
31 Oct 2.4 19:03:28 10° WSW 19:06:59 26° S 19:09:30 15° SE visible
01 Nov 2.5 18:56:07 10° WSW 18:59:33 25° S 19:02:40 12° SE visible
02 Nov 2.7 17:48:48 10° WSW 17:52:07 23° S 17:55:26 10° SE visible
03 Nov 2.9 17:41:32 10° WSW 17:44:40 20° SSW 17:47:48 10° SE visible
04 Nov 3.2 17:34:21 10° WSW 17:37:12 18° SSW 17:40:03 10° SSE visible
05 Nov 3.4 17:27:16 10° SW 17:29:42 15° SSW 17:32:09 10° SSE visible
06 Nov 3.6 17:20:25 10° SW 17:22:11 12° SSW 17:23:58 10° S visible
